TDRS 12

Last updated on Tue Sep 22 2026 00:03:06 GMT+0000 (Coordinated Universal Time)

1 39504U 14004A 26264.05330875 -.00000271 00000+0 00000+0 0 9990 2 39504 4.0782 20.5341 0006664 215.5454 102.0481 1.00267790 45239
UTC large
Height (km)
Speed (km/s)
/
Latitude / Longitude
Inclination (degrees)
Orbital Period (minutes)
Azimuth
Elevation
Range (km)
Doppler Factor

Next 0 passes for location: London (51.5072 / 0.1276)

No passes found over London.
TDRS 12